ATLAS 5 CENTAUR DEB, 44682

Orbit data source: Space-Track

ATLAS 5 CENTAUR DEB, 44682 is space debris in HEO originally from a launch on Wed, 17 Oct 2018 UTC launched from the Air Force Eastern Test Range (AFETR). Debris objects in space refer to the collection of defunct objects orbiting the Earth. Examples of debris include non-operational satellites, rocket bodies, and fragments generated from explosions, collisions, or faulty payload assembly.

Not visible in the next 10 days
ATLAS 5 CENTAUR DEB details
Identifier
44682, 2018-079AU
Orbit
HEO
Last TLE update10 hours ago
Origin
Flag of USULA (US)
ManufacturerULA Decatur
MissionSpacecraft
Bus & MotorUnknown
MassUnknown
Launch date (UTC)
2018-10-17 (6 years ago)
Launch vehicleUnknown
Launch site
Air Force Eastern Test Range (AFETR)
Object type
Payload
Rocket body
Debris
Shape & HBRUnknown
Radar Cross SectionRCS unknown

Expand to show TLE details & history

TLE from 10 hours ago
0 ATLAS 5 CENTAUR DEB
1 44682U 18079AU  24361.45007854 -.00000140  00000-0  00000-0 0  9994
2 44682  12.7024  81.4538 4654610 222.2229  90.5203  1.81925503 37078
Epoch: 2024-12-26T10:48Z
Definitive object data (Epoch: 2024-12-26T10:48:06.785Z)
Latitude-0°
Longitude-176.04954°
Altitude27,526.031 km
Speed3.074 km/s
True Right ascension05h 25m 37s
True Declination0° 00' 00"
Sunlit
Object was in daylight at TLE epoch
Visualization TLE readout
Latitude-11.97769°
Longitude73.67008°
Altitude9,346.867 km
Speed6.053 km/s
Apparent Right ascension22h 47m 42s
Apparent Declination-33° 18' 15"
Sunlit
Object is in daylight
Visualization observer readout
Local Sidereal Time20:23:31
Azimuth150.084° SSE
Elevation9.552°
Doppler factor1
Orbital elements
Apogee altitude35,163.075 km
Perigee altitude8,774.363 km
Semi-major axis28,346.856 km
Eccentricity0.465461
Inclination12.7024°
RAAN81.4538°
Arg. of periapsis222.2229°
True anomaly137.71901°
Mean anomaly90.5203°
Eccentric anomaly114.74123°
Mean motion0.45476 °/min
BSTARUnknown
Orbital period791.62 mins
Loading maneuver chart data...

ATLAS 5 CENTAUR DEB Visibility forecast

Observer location: undefined°, undefined

ATLAS 5 CENTAUR DEB is not visible in the next 10 days
Span
Click to sort rows by Start time (UTC) header in descending order
Start Az.
Max El. time (UTC)
Max El. Az.
Max El.
End time (UTC)
End Az.
|